This demonstration page uses our WeatherBlox Daily Observations layout. Learn more.

Left ArrowRight Arrow

40.92945, -100.16068

Hourly Observations for November 2, 2019

Temp ( °F °C ) Dew Point ( °F °C ) Humidity (%) Winds ( mph kmh ) Pressure ( in mb ) Visibility ( mi km ) Precip ( " mm )
12:15 am 00:15 Clear 26 -3.3 23 -5 88 88 WNW 7 11 30.52 1034 10 16.0934 0 0
12:35 am 00:35 Clear 26 -3.5 23 -5 89 89 WNW 7 11 30.51 1033 10 16.0934 0 0
12:55 am 00:55 Clear 25 -3.9 22 -5.4 89 89 WNW 7 11 30.52 1033 10 16.0934 0 0
1:15 am 01:15 Clear 25 -3.7 23 -5.1 90 90 W 7 11 30.52 1033 10 16.0934 0 0
1:35 am 01:35 Clear 25 -3.7 23 -5.2 89 89 W 7 11 30.53 1034 10 16.0934 0 0
1:55 am 01:55 Clear 24 -4.2 22 -5.7 89 89 W 5 7 30.53 1034 10 16.0934 0 0
2:15 am 02:15 Clear 24 -4.3 22 -5.6 91 91 WNW 6 9 30.53 1034 10 16.0934 0 0
2:35 am 02:35 Clear 25 -4.1 22 -5.5 90 90 WNW 8 13 30.53 1034 10 16.0934 0 0
2:55 am 02:55 Clear 24 -4.5 22 -5.7 91 91 WNW 5 7 30.53 1034 10 16.0934 0 0
3:15 am 03:15 Clear 22 -5.6 20 -6.5 93 93 WNW 5 7 30.55 1034 10 16.0934 0 0
3:35 am 03:35 Clear 21 -6 19 -7 93 93 NW 5 7 30.55 1035 10 16.0934 0 0
3:55 am 03:55 Clear 20 -6.5 19 -7.5 93 93 WNW 5 7 30.55 1034 10 16.0934 0 0
4:15 am 04:15 Clear 20 -6.9 18 -7.8 93 93 WNW 5 7 30.55 1035 10 16.0934 0 0
4:35 am 04:35 Clear 20 -6.9 18 -7.7 94 94 Calm 30.54 1034 10 16.0934 0 0
4:55 am 04:55 Clear 19 -7.3 17 -8.1 94 94 Calm 30.54 1034 10 16.0934 0 0
5:15 am 05:15 Clear 19 -7 18 -7.6 96 96 NW 5 7 30.54 1034 10 16.0934 0 0
5:35 am 05:35 Clear 19 -7.3 17 -8.3 93 93 NW 5 7 30.54 1034 10 16.0934 0 0
5:55 am 05:55 Clear 19 -7.2 17 -8.2 93 93 Calm 30.54 1034 10 16.0934 0 0
6:15 am 06:15 Clear 19 -7 17 -8.1 92 92 Calm 30.53 1034 10 16.0934 0 0
6:35 am 06:35 Clear 19 -7.5 17 -8.6 92 92 WNW 5 7 30.54 1034 10 16.0934 0 0
6:55 am 06:55 Clear 17 -8.2 15 -9.3 92 92 W 5 7 30.54 1034 10 16.0934 0 0
7:15 am 07:15 Clear 18 -7.7 16 -9 91 91 NW 5 7 30.53 1034 10 16.0934 0 0
7:35 am 07:35 Clear 18 -7.6 16 -8.9 91 91 NW 6 9 30.53 1034 10 16.0934 0 0
7:55 am 07:55 Clear 17 -8.2 15 -9.5 90 90 NW 7 11 30.52 1034 10 16.0934 0 0
8:15 am 08:15 Sunny 17 -8.5 14 -9.8 90 90 WNW 3 6 30.53 1034 10 16.0934 0 0
8:35 am 08:35 Sunny 18 -7.6 16 -9 90 90 W 3 6 30.52 1033 10 16.0934 0 0
8:55 am 08:55 Sunny 21 -6.2 18 -7.6 90 90 WNW 6 9 30.5 1033 10 16.0934 0 0
9:15 am 09:15 Sunny 22 -5.3 20 -6.8 89 89 WNW 5 7 30.49 1033 10 16.0934 0 0
9:35 am 09:35 Sunny 24 -4.6 20 -6.4 87 87 WNW 5 7 30.49 1032 10 16.0934 0 0
9:55 am 09:55 Sunny 25 -3.7 22 -5.8 86 86 Calm 30.48 1032 10 16.0934 0 0
10:15 am 10:15 Sunny 27 -2.6 23 -4.9 84 84 Calm 30.45 1031 10 16.0934 0 0
10:35 am 10:35 Sunny 30 -1.2 25 -3.9 82 82 WNW 3 6 30.44 1031 10 16.0934 0 0
10:55 am 10:55 Sunny 31 -0.3 25 -3.7 78 78 WNW 3 6 30.43 1031 10 16.0934 0 0
11:15 am 11:15 Sunny 34 1.1 27 -2.8 76 76 Calm 30.41 1030 10 16.0934 0 0
11:35 am 11:35 Sunny 37 2.5 29 -1.9 73 73 Calm 30.38 1029 10 16.0934 0 0
11:55 am 11:55 Sunny 42 5.3 30 -1.1 64 64 SW 7 11 30.35 1028 10 16.0934 0 0
12:15 pm 12:15 Sunny 45 7.4 28 -2.3 51 51 WSW 9 15 30.31 1026 10 16.0934 0 0
12:35 pm 12:35 Sunny 46 7.6 27 -2.6 49 49 WSW 13 20 30.29 1026 10 16.0934 0 0
12:55 pm 12:55 Sunny 46 8 27 -2.8 47 47 SW 15 24 30.29 1026 10 16.0934 0 0
1:15 pm 13:15 Sunny 47 8.5 28 -2.3 47 47 SW 20 31 30.26 1025 10 16.0934 0 0
1:35 pm 13:35 Sunny 49 9.2 27 -2.8 43 43 SW 18 30 30.25 1024 10 16.0934 0 0
1:55 pm 13:55 Sunny 50 10.2 27 -2.6 41 41 WSW 12 19 30.22 1023 10 16.0934 0 0
2:15 pm 14:15 Sunny 51 10.3 26 -3.6 38 38 SW 15 24 30.2 1023 10 16.0934 0 0
2:35 pm 14:35 Sunny 52 10.9 26 -3.6 36 36 W 16 26 30.18 1022 10 16.0934 0 0
2:55 pm 14:55 Sunny 52 11.3 26 -3.4 36 36 WSW 16 26 30.17 1022 10 16.0934 0 0
3:15 pm 15:15 Sunny 53 11.5 25 -3.7 35 35 W 12 19 30.16 1021 10 16.0934 0 0
3:35 pm 15:35 Sunny 54 12.2 24 -4.3 32 32 SW 13 20 30.13 1020 10 16.0934 0 0
3:55 pm 15:55 Sunny 55 12.6 24 -4.6 30 30 W 15 24 30.13 1020 10 16.0934 0 0
4:15 pm 16:15 Sunny 55 13 23 -5 28 28 WSW 13 20 30.1 1019 10 16.0934 0 0
4:35 pm 16:35 Sunny 56 13.4 22 -5.5 27 27 WSW 15 24 30.1 1019 10 16.0934 0 0
4:55 pm 16:55 Sunny 56 13.5 22 -5.4 27 27 W 15 24 30.09 1019 10 16.0934 0 0
5:15 pm 17:15 Sunny 56 13.2 23 -5 28 28 W 17 28 30.09 1019 10 16.0934 0 0
5:35 pm 17:35 Sunny 56 13.1 24 -4.6 29 29 WSW 8 13 30.08 1019 10 16.0934 0 0
5:55 pm 17:55 Sunny 54 12.4 25 -3.8 32 32 WSW 8 13 30.09 1019 10 16.0934 0 0
6:15 pm 18:15 Sunny 52 11 26 -3.5 36 36 SW 7 11 30.09 1019 10 16.0934 0 0
6:35 pm 18:35 Partly Cloudy 48 9 25 -4 40 40 SW 8 13 30.1 1019 10 16.0934 0 0
6:55 pm 18:55 Mostly Cloudy 46 7.5 25 -4 44 44 SW 8 13 30.12 1020 10 16.0934 0 0
7:15 pm 19:15 Cloudy 46 7.5 25 -4.1 44 44 W 6 9 30.12 1020 10 16.0934 0 0
7:35 pm 19:35 Mostly Cloudy 42 5.5 24 -4.4 49 49 SW 3 6 30.14 1021 10 16.0934 0 0
7:55 pm 19:55 Partly Cloudy 41 5.1 24 -4.5 50 50 SW 5 7 30.15 1021 10 16.0934 0 0
8:15 pm 20:15 Clear 40 4.4 23 -5 51 51 WSW 5 7 30.14 1021 10 16.0934 0 0
8:35 pm 20:35 Partly Cloudy 39 3.8 23 -4.9 53 53 WSW 3 6 30.16 1021 10 16.0934 0 0
8:55 pm 20:55 Partly Cloudy 38 3.3 25 -4 59 59 WNW 7 11 30.16 1021 10 16.0934 0 0
9:15 pm 21:15 Partly Cloudy 35 1.8 24 -4.2 65 65 W 8 13 30.18 1022 10 16.0934 0 0
9:35 pm 21:35 Clear 35 1.5 24 -4.6 64 64 W 8 13 30.18 1022 10 16.0934 0 0
9:55 pm 21:55 Clear 34 1 24 -4.5 67 67 W 8 13 30.19 1022 10 16.0934 0 0
10:15 pm 22:15 Clear 33 0.5 23 -5.1 66 66 W 7 11 30.19 1022 10 16.0934 0 0
10:35 pm 22:35 Clear 32 0 23 -5 69 69 W 7 11 30.2 1023 10 16.0934 0 0
10:55 pm 22:55 Clear 32 0 23 -4.8 70 70 W 8 13 30.2 1023 10 16.0934 0 0
11:15 pm 23:15 Clear 32 0 24 -4.6 71 71 W 7 11 30.19 1022 10 16.0934 0 0
11:35 pm 23:35 Clear 31 -0.7 23 -5.1 72 72 WSW 7 11 30.19 1022 10 16.0934 0 0
11:55 pm 23:55 Clear 30 -1.2 22 -5.3 74 74 W 6 9 30.19 1022 10 16.0934 0 0

Powered by AerisWeather